• In Russia
  • List of Countries
  • For 7 days
  • Water Temperature
  • Weather Map
  • Weather Widgets
  • user-avatar
    Login

    Hourly Weather Ch'ŏngjin

    Today, 17 February, Monday

    Time Temperature Precipitation Wind Pressure Humidity
    00:00 -11°C° 0 mm 5 mps 759 mmHg 73%
    01:00 -12°C° 0 mm 5 mps 759 mmHg 73%
    02:00 -12°C° 0 mm 5 mps 759 mmHg 73%
    03:00 -12°C° 0 mm 6 mps 759 mmHg 73%
    04:00 -12°C° 0 mm 6 mps 759 mmHg 72%
    05:00 -14°C° 0 mm 6 mps 760 mmHg 72%
    06:00 -14°C° 0 mm 6 mps 760 mmHg 72%
    07:00 -14°C° 0 mm 6 mps 759 mmHg 70%
    08:00 -12°C° 0 mm 6 mps 759 mmHg 69%
    09:00 -13°C° 0 mm 7 mps 759 mmHg 63%
    10:00 -11°C° 0 mm 6 mps 759 mmHg 61%
    11:00 -10°C° 0 mm 6 mps 759 mmHg 60%
    12:00 -9°C° 0 mm 6 mps 759 mmHg 58%
    13:00 -9°C° 0 mm 6 mps 758 mmHg 58%
    14:00 -9°C° 0 mm 6 mps 758 mmHg 59%
    15:00 -9°C° 0 mm 7 mps 758 mmHg 59%
    16:00 -9°C° 0 mm 7 mps 759 mmHg 61%
    17:00 -11°C° 0 mm 7 mps 759 mmHg 63%
    18:00 -11°C° 0 mm 6 mps 760 mmHg 65%
    19:00 -11°C° 0 mm 6 mps 760 mmHg 65%
    20:00 -12°C° 0 mm 6 mps 761 mmHg 65%
    21:00 -12°C° 0 mm 6 mps 761 mmHg 65%
    22:00 -12°C° 0 mm 6 mps 762 mmHg 64%
    23:00 -12°C° 0 mm 5 mps 762 mmHg 62%

    Tomorrow, 18 February, Tuesday

    Time Temperature Precipitation Wind Pressure Humidity
    00:00 -12°C° 0 mm 5 mps 762 mmHg 60%
    01:00 -12°C° 0 mm 5 mps 763 mmHg 60%
    02:00 -12°C° 0 mm 5 mps 763 mmHg 59%
    03:00 -12°C° 0 mm 5 mps 763 mmHg 58%
    04:00 -12°C° 0 mm 5 mps 764 mmHg 57%
    05:00 -13°C° 0 mm 5 mps 764 mmHg 57%
    06:00 -12°C° 0 mm 4 mps 765 mmHg 56%
    07:00 -10°C° 0 mm 4 mps 765 mmHg 56%
    08:00 -8°C° 0 mm 3 mps 765 mmHg 55%
    09:00 -7°C° 0 mm 3 mps 765 mmHg 54%
    10:00 -4°C° 0 mm 2 mps 765 mmHg 53%
    11:00 -3°C° 0 mm 2 mps 765 mmHg 52%
    12:00 +1°C° 0 mm 1 mps 765 mmHg 51%
    13:00 +1°C° 0 mm 1 mps 764 mmHg 53%
    14:00 +1°C° 0 mm 1 mps 764 mmHg 55%
    15:00 +1°C° 0 mm 2 mps 764 mmHg 57%
    16:00 0°C° 0 mm 1 mps 764 mmHg 61%
    17:00 -1°C° 0 mm 1 mps 765 mmHg 65%
    18:00 -2°C° 0 mm 1 mps 765 mmHg 69%
    19:00 -4°C° 0 mm 2 mps 765 mmHg 70%
    20:00 -5°C° 0 mm 2 mps 766 mmHg 71%
    21:00 -5°C° 0 mm 2 mps 766 mmHg 72%
    22:00 -5°C° 0 mm 2 mps 767 mmHg 71%
    23:00 -5°C° 0 mm 2 mps 767 mmHg 70%

    Day after tomorrow, 19 February, Wednesday

    Time Temperature Precipitation Wind Pressure Humidity
    00:00 -6°C° 0 mm 2 mps 767 mmHg 69%
    01:00 -6°C° 0 mm 2 mps 767 mmHg 68%
    02:00 -6°C° 0 mm 2 mps 768 mmHg 68%
    03:00 -6°C° 0 mm 2 mps 768 mmHg 67%
    04:00 -6°C° 0 mm 2 mps 768 mmHg 67%
    05:00 -6°C° 0 mm 2 mps 768 mmHg 67%
    06:00 -6°C° 0 mm 2 mps 769 mmHg 67%
    07:00 -5°C° 0 mm 2 mps 769 mmHg 66%
    08:00 -4°C° 0 mm 2 mps 769 mmHg 65%
    09:00 -3°C° 0 mm 2 mps 770 mmHg 63%
    10:00 0°C° 0 mm 1 mps 769 mmHg 61%
    11:00 +2°C° 0 mm 1 mps 769 mmHg 58%
    12:00 +3°C° 0 mm 1 mps 769 mmHg 55%
    13:00 +3°C° 0 mm 1 mps 769 mmHg 58%
    14:00 +3°C° 0 mm 1 mps 768 mmHg 62%
    15:00 +2°C° 0 mm 2 mps 768 mmHg 65%
    16:00 +1°C° 0 mm 2 mps 769 mmHg 72%
    17:00 -1°C° 0 mm 2 mps 769 mmHg 79%
    18:00 -2°C° 0 mm 2 mps 770 mmHg 86%
    19:00 -2°C° 0.1 mm 2 mps 770 mmHg 88%
    20:00 -2°C° 0.1 mm 2 mps 771 mmHg 90%
    21:00 -2°C° 0.1 mm 2 mps 771 mmHg 92%
    22:00 -3°C° 0.2 mm 2 mps 771 mmHg 87%
    23:00 -3°C° 0.2 mm 2 mps 771 mmHg 83%

    20 February, Thursday

    Time Temperature Precipitation Wind Pressure Humidity
    00:00 -4°C° 0.2 mm 2 mps 772 mmHg 79%
    01:00 -4°C° 0.2 mm 2 mps 772 mmHg 78%
    02:00 -4°C° 0.2 mm 2 mps 772 mmHg 77%
    03:00 -5°C° 0.2 mm 2 mps 773 mmHg 77%
    04:00 -5°C° 0.1 mm 2 mps 773 mmHg 74%
    05:00 -5°C° 0.1 mm 2 mps 773 mmHg 72%
    06:00 -5°C° 0.1 mm 2 mps 773 mmHg 69%
    07:00 -4°C° 0.1 mm 2 mps 774 mmHg 68%
    08:00 -3°C° 0.1 mm 2 mps 774 mmHg 67%
    09:00 -1°C° 0.1 mm 1 mps 774 mmHg 66%
    10:00 0°C° 0 mm 1 mps 774 mmHg 66%
    11:00 +1°C° 0 mm 1 mps 774 mmHg 66%
    12:00 +2°C° 0 mm 1 mps 774 mmHg 66%
    13:00 +3°C° 0 mm 1 mps 774 mmHg 68%
    14:00 +3°C° 0 mm 1 mps 774 mmHg 69%
    15:00 +2°C° 0 mm 2 mps 774 mmHg 71%
    16:00 +1°C° 0 mm 2 mps 774 mmHg 75%
    17:00 -1°C° 0 mm 2 mps 775 mmHg 79%
    18:00 -2°C° 0 mm 2 mps 775 mmHg 84%
    19:00 -2°C° 0 mm 2 mps 776 mmHg 84%
    20:00 -3°C° 0 mm 2 mps 776 mmHg 84%
    21:00 -3°C° 0 mm 2 mps 777 mmHg 84%
    22:00 -3°C° 0 mm 2 mps 777 mmHg 83%
    23:00 -3°C° 0 mm 2 mps 777 mmHg 83%

    21 February, Friday

    Time Temperature Precipitation Wind Pressure Humidity
    00:00 -4°C° 0 mm 2 mps 777 mmHg 82%
    01:00 -4°C° 0 mm 2 mps 777 mmHg 81%
    02:00 -2°C° 0 mm 1 mps 777 mmHg 80%
    03:00 -2°C° 0 mm 1 mps 777 mmHg 79%
    04:00 -2°C° 0 mm 1 mps 777 mmHg 80%
    05:00 -2°C° 0 mm 1 mps 776 mmHg 81%
    06:00 -2°C° 0 mm 1 mps 776 mmHg 82%
    07:00 -1°C° 0.1 mm 1 mps 776 mmHg 82%
    08:00 0°C° 0.1 mm 1 mps 776 mmHg 82%
    09:00 0°C° 0.1 mm 1 mps 776 mmHg 83%
    10:00 -1°C° 0 mm 2 mps 775 mmHg 83%
    11:00 +1°C° 0 mm 2 mps 774 mmHg 83%
    12:00 +2°C° 0 mm 2 mps 774 mmHg 83%
    13:00 +2°C° 0 mm 2 mps 773 mmHg 84%
    14:00 +3°C° 0 mm 1 mps 772 mmHg 85%
    15:00 +3°C° 0 mm 1 mps 771 mmHg 86%
    22:00 +2°C° 0 mm 1 mps 768 mmHg 89%
    23:00 +2°C° 0 mm 1 mps 768 mmHg 89%

    22 February, Saturday

    Time Temperature Precipitation Wind Pressure Humidity
    00:00 +2°C° 0 mm 1 mps 767 mmHg 89%
    01:00 +2°C° 0 mm 1 mps 766 mmHg 89%
    02:00 +2°C° 0 mm 1 mps 765 mmHg 89%
    03:00 +2°C° 0 mm 1 mps 764 mmHg 89%
    04:00 +2°C° 0 mm 1 mps 764 mmHg 86%
    05:00 +2°C° 0 mm 1 mps 763 mmHg 83%
    06:00 +2°C° 0 mm 1 mps 763 mmHg 80%
    07:00 +3°C° 0 mm 1 mps 763 mmHg 77%
    08:00 +3°C° 0 mm 1 mps 763 mmHg 75%
    09:00 +4°C° 0 mm 1 mps 762 mmHg 72%
    10:00 +4°C° 0 mm 2 mps 762 mmHg 67%
    11:00 +5°C° 0 mm 2 mps 761 mmHg 61%
    12:00 +5°C° 0 mm 3 mps 760 mmHg 56%
    13:00 +6°C° 0 mm 2 mps 760 mmHg 56%
    14:00 +5°C° 0 mm 2 mps 760 mmHg 56%
    15:00 +5°C° 0 mm 2 mps 760 mmHg 57%
    16:00 +3°C° 0 mm 3 mps 760 mmHg 58%
    17:00 +1°C° 0 mm 5 mps 760 mmHg 59%
    18:00 -2°C° 0 mm 6 mps 761 mmHg 60%
    19:00 -3°C° 0 mm 6 mps 762 mmHg 61%
    20:00 -4°C° 0 mm 6 mps 762 mmHg 61%
    21:00 -6°C° 0 mm 7 mps 763 mmHg 61%
    22:00 -5°C° 0 mm 6 mps 764 mmHg 60%
    23:00 -5°C° 0 mm 5 mps 764 mmHg 58%
    Show more